T/H sensor 21.12.2020 Measurements

Back to Overview

Timestamp Temperature Humidity
5/4/2026 5:46:07 PM 16,5 C 46.0%
5/4/2026 5:39:03 PM 16,7 C 46.0%
5/4/2026 5:32:01 PM 16,9 C 47.0%
5/4/2026 5:24:59 PM 16,2 C 46.0%
5/4/2026 5:17:58 PM 16,0 C 44.0%
5/4/2026 5:10:54 PM 16,4 C 46.0%
5/4/2026 5:03:52 PM 17,1 C 45.0%
5/4/2026 4:56:49 PM 17,6 C 46.0%
5/4/2026 4:49:47 PM 16,7 C 47.0%
5/4/2026 4:42:44 PM 15,4 C 48.0%
5/4/2026 4:35:43 PM 15,6 C 47.0%
5/4/2026 4:28:39 PM 16,2 C 46.0%
5/4/2026 4:21:38 PM 17,0 C 46.0%
5/4/2026 4:14:34 PM 17,0 C 46.0%
5/4/2026 4:07:33 PM 17,1 C 45.0%
5/4/2026 4:00:30 PM 17,6 C 45.0%
5/4/2026 3:53:34 PM 18,0 C 45.0%
5/4/2026 3:46:27 PM 17,4 C 45.0%
5/4/2026 3:39:31 PM 16,0 C 47.0%
5/4/2026 3:32:23 PM 15,9 C 45.0%
5/4/2026 3:25:19 PM 16,7 C 45.0%
5/4/2026 3:18:17 PM 16,7 C 45.0%
5/4/2026 3:11:14 PM 17,1 C 45.0%
5/4/2026 3:04:13 PM 17,8 C 45.0%
5/4/2026 2:57:11 PM 17,5 C 46.0%
5/4/2026 2:50:09 PM 16,1 C 46.0%
5/4/2026 2:43:07 PM 15,9 C 46.0%
5/4/2026 2:36:05 PM 17,2 C 46.0%
5/4/2026 2:29:04 PM 17,0 C 45.0%
5/4/2026 2:22:01 PM 16,2 C 46.0%
5/4/2026 2:15:01 PM 15,9 C 45.0%
5/4/2026 2:07:58 PM 17,1 C 44.0%
5/4/2026 2:00:56 PM 16,1 C 48.0%
5/4/2026 1:53:54 PM 15,3 C 46.0%
5/4/2026 1:46:52 PM 16,4 C 46.0%
5/4/2026 1:39:49 PM 16,5 C 45.0%
5/4/2026 1:32:47 PM 16,7 C 45.0%
5/4/2026 1:25:45 PM 16,3 C 46.0%
5/4/2026 1:18:43 PM 15,8 C 46.0%
5/4/2026 1:11:41 PM 16,0 C 46.0%
5/4/2026 1:04:40 PM 16,0 C 43.0%
5/4/2026 12:57:38 PM 16,4 C 46.0%
5/4/2026 12:50:34 PM 16,1 C 45.0%
5/4/2026 12:43:33 PM 16,2 C 45.0%
5/4/2026 12:36:29 PM 16,0 C 46.0%
5/4/2026 12:29:33 PM 16,1 C 46.0%
5/4/2026 12:22:24 PM 15,8 C 45.0%
5/4/2026 12:15:22 PM 15,9 C 47.0%
5/4/2026 12:08:20 PM 16,3 C 46.0%
5/4/2026 12:01:16 PM 16,5 C 48.0%
5/4/2026 11:54:15 AM 15,9 C 48.0%
5/4/2026 11:47:12 AM 16,4 C 45.0%
5/4/2026 11:41:16 AM 16,7 C 51.0%
5/4/2026 11:34:13 AM 16,2 C 48.0%
5/4/2026 11:27:11 AM 16,5 C 49.0%
5/4/2026 11:26:16 AM 16,5 C 44.0%
5/4/2026 11:22:09 AM 16,5 C 52.0%
5/4/2026 11:17:43 AM 16,3 C 47.0%
5/4/2026 11:10:40 AM 16,4 C 46.0%
5/4/2026 11:07:15 AM 16,0 C 52.0%
5/4/2026 11:00:11 AM 15,8 C 47.0%
5/4/2026 10:56:58 AM 16,4 C 53.0%
5/4/2026 10:54:58 AM 16,4 C 48.0%
5/4/2026 10:53:57 AM 16,4 C 47.0%
5/4/2026 10:50:50 AM 16,4 C 53.0%
5/4/2026 10:49:43 AM 16,4 C 48.0%
5/4/2026 10:49:07 AM 16,3 C 53.0%
5/4/2026 10:42:05 AM 16,2 C 52.0%
5/4/2026 10:41:28 AM 16,3 C 45.0%
5/4/2026 10:39:27 AM 16,4 C 51.0%
5/4/2026 10:32:25 AM 15,9 C 56.0%
5/4/2026 10:25:23 AM 15,6 C 53.0%
5/4/2026 10:22:09 AM 15,5 C 59.0%
5/4/2026 10:15:08 AM 15,1 C 57.0%
5/4/2026 10:08:04 AM 14,6 C 57.0%
5/4/2026 10:01:01 AM 14,4 C 60.0%
5/4/2026 9:53:59 AM 13,7 C 61.0%
5/4/2026 9:46:57 AM 12,8 C 62.0%
5/4/2026 9:39:53 AM 11,7 C 63.0%
5/4/2026 9:32:51 AM 11,3 C 62.0%
5/4/2026 9:25:50 AM 10,8 C 62.0%
5/4/2026 9:18:47 AM 10,1 C 63.0%
5/4/2026 9:11:44 AM 9,7 C 63.0%
5/4/2026 9:04:42 AM 9,3 C 65.0%
5/4/2026 8:57:38 AM 8,6 C 65.0%
5/4/2026 8:50:37 AM 8,1 C 66.0%
5/4/2026 8:43:34 AM 7,2 C 67.0%
5/4/2026 8:36:29 AM 6,5 C 67.0%
5/4/2026 8:29:27 AM 6,0 C 67.0%
5/4/2026 8:22:26 AM 5,3 C 69.0%
5/4/2026 8:15:23 AM 4,2 C 70.0%
5/4/2026 8:08:21 AM 3,3 C 69.0%
5/4/2026 8:01:17 AM 3,0 C 70.0%
5/4/2026 7:54:15 AM 2,6 C 68.0%
5/4/2026 7:47:13 AM 2,6 C 70.0%
5/4/2026 7:40:10 AM 2,3 C 71.0%
5/4/2026 7:33:06 AM 1,5 C 72.0%
5/4/2026 7:26:04 AM 0,6 C 73.0%
5/4/2026 7:19:03 AM -0,3 C 75.0%
5/4/2026 7:11:59 AM -1,4 C 73.0%
5/4/2026 7:04:56 AM -2,3 C 75.0%
5/4/2026 6:57:54 AM -3,3 C 77.0%
5/4/2026 6:50:51 AM -3,6 C 77.0%
5/4/2026 6:43:49 AM -3,8 C 77.0%
5/4/2026 6:36:46 AM -3,8 C 75.0%
5/4/2026 6:29:44 AM -3,6 C 77.0%
5/4/2026 6:22:42 AM -3,4 C 77.0%
5/4/2026 6:15:39 AM -3,3 C 77.0%
5/4/2026 6:08:37 AM -3,4 C 78.0%
5/4/2026 6:01:35 AM -3,7 C 80.0%
5/4/2026 5:54:30 AM -3,6 C 78.0%
5/4/2026 5:47:28 AM -3,4 C 77.0%
5/4/2026 5:40:25 AM -3,4 C 78.0%
5/4/2026 5:33:23 AM -3,4 C 80.0%
5/4/2026 5:29:08 AM -3,2 C 75.0%
5/4/2026 5:22:05 AM -3,2 C 76.0%
5/4/2026 5:15:04 AM -3,3 C 75.0%
5/4/2026 5:08:01 AM -3,4 C 76.0%
5/4/2026 5:00:57 AM -3,3 C 75.0%
5/4/2026 4:53:55 AM -3,0 C 76.0%
5/4/2026 4:46:51 AM -3,0 C 76.0%
5/4/2026 4:39:48 AM -3,0 C 75.0%
5/4/2026 4:32:46 AM -3,1 C 77.0%
5/4/2026 4:25:46 AM -3,2 C 77.0%
5/4/2026 4:18:42 AM -3,2 C 79.0%
5/4/2026 4:17:17 AM -3,2 C 74.0%
5/4/2026 4:10:14 AM -3,0 C 74.0%
5/4/2026 4:03:12 AM -2,7 C 74.0%
5/4/2026 3:56:11 AM -2,6 C 75.0%
5/4/2026 3:49:07 AM -2,3 C 75.0%
5/4/2026 3:42:11 AM -2,4 C 75.0%
5/4/2026 3:35:02 AM -2,4 C 74.0%
5/4/2026 3:27:58 AM -2,5 C 75.0%
5/4/2026 3:20:56 AM -2,6 C 74.0%
5/4/2026 3:13:53 AM -2,6 C 77.0%
5/4/2026 3:08:56 AM -2,4 C 72.0%
5/4/2026 3:01:54 AM -2,1 C 75.0%
5/4/2026 2:54:53 AM -2,2 C 74.0%
5/4/2026 2:47:51 AM -1,9 C 73.0%
5/4/2026 2:40:48 AM -1,6 C 74.0%
5/4/2026 2:33:46 AM -1,7 C 75.0%
5/4/2026 2:26:45 AM -1,8 C 74.0%
5/4/2026 2:19:42 AM -1,9 C 74.0%
5/4/2026 2:12:39 AM -1,9 C 77.0%
5/4/2026 2:06:55 AM -1,9 C 72.0%
5/4/2026 1:59:52 AM -1,7 C 72.0%
5/4/2026 1:52:49 AM -1,5 C 73.0%
5/4/2026 1:45:47 AM -1,5 C 74.0%
5/4/2026 1:38:45 AM -1,6 C 75.0%
5/4/2026 1:31:44 AM -1,5 C 73.0%
5/4/2026 1:24:43 AM -1,6 C 74.0%
5/4/2026 1:18:54 AM -1,7 C 69.0%
5/4/2026 1:11:52 AM -1,3 C 70.0%
5/4/2026 1:04:47 AM -1,0 C 71.0%
5/4/2026 12:57:44 AM -0,7 C 72.0%
5/4/2026 12:50:42 AM -0,5 C 71.0%
5/4/2026 12:43:39 AM -0,4 C 71.0%
5/4/2026 12:36:38 AM -0,5 C 71.0%
5/4/2026 12:29:34 AM -0,5 C 70.0%
5/4/2026 12:22:32 AM -0,6 C 71.0%
5/4/2026 12:15:28 AM -0,6 C 71.0%
5/4/2026 12:08:24 AM -0,7 C 71.0%
5/4/2026 12:01:21 AM -0,7 C 69.0%